#timestamp,LO_Frequency,Hit,StdDev 
1576764015.7,286046997.1,N
1576764035.5,286046997.4,N
1576764055.4,286046997.3,N
1576764075.2,286046997.7,N
1576764095.1,286046995.5,Y
1576764096.0,286046995.5,P
1576764115.8,286046998.8,N
1576764135.6,286046999.2,N
1576764155.5,286046998.7,N
1576764175.3,286046999.0,N
1576764195.1,286046998.4,N
1576764215.9,286046998.4,N
1576764235.7,286046999.2,N
1576764255.6,286046999.2,N
1576764275.4,286046996.6,Y
1576764295.2,286046998.8,P
1576764315.1,286046998.5,P
1576764316.0,286046998.5,P
1576764335.8,286046998.4,Y
1576764355.7,286047002.6,P
1576764375.5,286047001.7,N
1576764395.3,286047004.3,N
1576764415.2,286047003.9,N
1576764435.0,286047003.8,N
1576764435.9,286047003.8,N
1576764455.7,286047004.2,N
1576764475.6,286047003.5,N
1576764495.4,286047004.1,N
1576764515.3,286047003.9,N
1576764535.1,286047004.2,N
1576764536.0,286047004.2,N
1576764555.8,286047004.4,N
1576764575.7,286047003.9,N
1576764595.5,286047001.3,N
1576764615.3,286047001.3,N
1576764635.2,286047002.0,N
1576764655.0,286046999.8,N
1576764655.9,286046999.8,N
1576764675.8,286047003.2,N
1576764695.6,286047003.1,N
1576764715.4,286047005.7,Y
1576764735.3,286047000.9,P
1576764755.1,286047000.4,N
1576764775.8,286046998.1,N
1576764795.7,286046998.1,N
1576764815.5,286046998.2,N
1576764835.4,286047001.2,N
1576764855.2,286046999.0,N
1576764875.0,286046998.4,N
1576764875.9,286046998.4,N
1576764895.8,286046999.4,N
1576764915.6,286047001.2,N
1576764935.4,286046998.7,N
1576764955.3,286046999.4,N
1576764975.1,286046997.3,N
1576764995.9,286046997.0,N
1576765015.7,286047000.5,N
1576765035.5,286046998.6,N
1576765055.4,286046998.5,N
1576765075.2,286047000.5,N
1576765095.0,286047001.1,N
1576765095.9,286047001.1,N
1576765115.8,286047000.6,N
1576765135.6,286047000.8,N
1576765155.5,286047000.6,N
1576765175.3,286047000.6,N
1576765195.1,286047000.5,N
1576765215.9,286047002.6,N
1576765235.7,286046999.7,N
1576765255.5,286047002.4,N
1576765275.4,286047000.9,N
1576765295.2,286047000.7,N
1576765315.1,286047000.8,N
1576765316.0,286047000.8,N
1576765335.8,286047000.5,N
1576765355.6,286047000.3,N
1576765375.5,286047000.7,N
1576765395.3,286046999.7,N
1576765415.1,286047002.7,N
1576765435.9,286047002.1,N
1576765455.7,286047003.6,N
1576765475.6,286047003.2,N
1576765495.4,286047006.0,Y
1576765515.2,286047001.8,P
1576765535.1,286047001.9,N
1576765536.0,286047001.9,P
1576765555.8,286047000.1,N
1576765575.7,286047004.0,Y
1576765595.5,286047002.4,P
1576765615.3,286046999.9,N
1576765635.2,286047000.3,N
1576765655.0,286047001.1,N
1576765655.9,286047001.1,N
1576765675.7,286047001.0,N
1576765695.6,286046999.3,N
1576765715.4,286046999.4,N
1576765735.3,286046997.0,Y
1576765755.1,286046997.9,P
1576765756.0,286046997.9,N
1576765775.8,286046998.0,N
1576765795.7,286046995.0,Y
1576765815.5,286046998.9,P
1576765835.4,286046998.8,P
1576765855.2,286046998.6,P
1576765875.0,286046998.7,Y
1576765875.9,286046998.7,P
1576765895.8,286047000.3,P
1576765915.6,286047000.9,N
1576765935.5,286046998.3,N
1576765955.3,286046999.4,N
1576765975.1,286046999.3,N
1576765995.9,286046996.5,Y
1576766015.7,286046999.1,P
1576766035.5,286046999.2,P
1576766055.4,286046998.2,P
1576766075.2,286046999.3,N
1576766095.1,286046997.0,Y
1576766096.0,286046997.0,P
1576766115.8,286046998.6,N
1576766135.6,286046998.5,N
1576766155.5,286046998.2,N
1576766175.3,286047001.1,N
1576766195.2,286047000.7,N
1576766215.9,286046999.3,N
1576766235.7,286046998.2,N
1576766255.6,286046999.5,N
1576766275.4,286046999.5,N
1576766295.2,286046998.7,N
1576766315.1,286047000.9,N
1576766316.0,286047000.9,N
1576766335.8,286047000.3,N
1576766355.7,286047000.4,N
1576766375.5,286046999.0,N
1576766395.3,286046999.3,N
1576766415.2,286047001.0,N
1576766435.0,286046998.5,N
1576766435.9,286046998.5,N
1576766455.8,286046999.4,N
1576766475.6,286046999.6,N
1576766495.4,286046999.6,N
1576766515.3,286046998.9,N
1576766535.1,286046998.3,N
1576766555.8,286046998.7,N
1576766575.7,286046999.6,N
1576766595.5,286046998.8,N
1576766615.4,286046999.3,N
1576766635.2,286046998.3,N
1576766655.0,286046998.4,N
1576766655.9,286046998.4,N
1576766675.8,286046998.5,N
1576766695.6,286047000.8,N
1576766715.4,286046998.9,N
1576766735.3,286046999.3,N
1576766755.1,286046998.2,N
1576766775.9,286047000.6,N
1576766795.7,286047000.9,N
1576766815.5,286046999.4,N
1576766835.4,286046998.3,N
1576766855.2,286046998.4,N
1576766875.0,286046997.1,Y
1576766876.0,286046997.1,P
1576766895.8,286046998.5,N
1576766915.6,286047000.9,N
1576766935.5,286047001.1,N
1576766955.3,286046998.5,N
1576766975.1,286046999.3,N
1576766995.9,286046999.6,N
1576767015.7,286046999.4,N
1576767035.6,286046999.5,N
1576767055.4,286046999.5,N
1576767075.2,286046999.1,N
1576767095.1,286046999.2,N
1576767096.0,286046999.2,N
1576767115.8,286046998.9,N
1576767135.6,286046999.0,N
1576767155.5,286046999.9,N
1576767175.3,286047000.5,N
1576767195.2,286047000.9,N
1576767215.9,286047000.7,N
1576767235.7,286047000.0,N
1576767255.6,286047002.3,N
1576767275.4,286046999.9,N
1576767295.2,286047000.9,N
1576767315.1,286047001.8,N
1576767316.0,286047001.8,N
1576767335.8,286047001.4,N
1576767355.7,286047004.0,Y
1576767375.5,286047001.7,P
1576767395.3,286047001.6,N
1576767415.2,286047002.6,P
1576767435.0,286047002.8,N
1576767435.9,286047002.8,N
1576767455.7,286046999.7,N
1576767475.6,286047000.1,N
1576767495.4,286046999.9,N
1576767515.3,286047000.3,N
1576767535.1,286047000.2,N
1576767536.0,286047000.2,N
1576767555.8,286047000.1,N
1576767575.7,286047000.8,N
1576767595.5,286046999.9,N
